This is the latest recevied weather packets stored in our database for station/object DB0ADS-6. If no packets are shown the sender has not sent any weather packets the latest 10 day(s).
| Time | Temp. | Humidity | Pressure | Rain* | Wind** | Luminosity | Snow |
|---|---|---|---|---|---|---|---|
| 1777469174 | 16.11° C | 27% | 1021.9 hPa | 0 mm | - | - | - |
| 1777468872 | 16.67° C | 26% | 1021.9 hPa | 0 mm | - | - | - |
| 1777468570 | 16.11° C | 27% | 1022 hPa | 0 mm | - | - | - |
| 1777468268 | 16.67° C | 27% | 1021.9 hPa | 0 mm | - | - | - |
| 1777467967 | 16.11° C | 27% | 1021.9 hPa | 0 mm | - | - | - |
| 1777467665 | 16.11° C | 26% | 1021.9 hPa | 0 mm | - | - | - |
| 1777467383 | 15.56° C | 26% | 1022 hPa | 0 mm | - | - | - |
| 1777467062 | 16.11° C | 25% | 1022 hPa | 0 mm | - | - | - |
| 1777466760 | 15.56° C | 26% | 1021.9 hPa | 0 mm | - | - | - |
| 1777466459 | 15.56° C | 25% | 1022.1 hPa | 0 mm | - | - | - |
| 1777466177 | 15.56° C | 26% | 1022 hPa | 0 mm | - | - | - |
| 1777465855 | 15.56° C | 26% | 1022 hPa | 0 mm | - | - | - |
| 1777465554 | 15.56° C | 25% | 1022.1 hPa | 0 mm | - | - | - |
| 1777465251 | 15.56° C | 26% | 1022.1 hPa | 0 mm | - | - | - |
| 1777464950 | 16.11° C | 26% | 1022.1 hPa | 0 mm | - | - | - |
| 1777464648 | 15.56° C | 27% | 1021.9 hPa | 0 mm | - | - | - |
| 1777464346 | 15° C | 25% | 1022 hPa | 0 mm | - | - | - |
| 1777464044 | 15° C | 25% | 1022.2 hPa | 0 mm | - | - | - |
| 1777463742 | 15° C | 26% | 1022.2 hPa | 0 mm | - | - | - |
| 1777463440 | 14.44° C | 26% | 1022.2 hPa | 0 mm | - | - | - |
| 1777463139 | 15° C | 26% | 1022.3 hPa | 0 mm | - | - | - |
| 1777462840 | 15° C | 26% | 1022.2 hPa | 0 mm | - | - | - |
| 1777462543 | 15° C | 26% | 1022.3 hPa | 0 mm | - | - | - |
| 1777462234 | 15° C | 26% | 1022.3 hPa | 0 mm | - | - | - |
| 1777461933 | 15° C | 26% | 1022.3 hPa | 0 mm | - | - | - |
* Rain latest hour (hover to see other rain measurements)
** Current wind speed in m/s (hover to see current wind gust speed)